Regional Weather Roundup
Issued by NWS Sioux Falls, SD

Home | Current Version | Previous Version | Graphics & Text | Print | Product List | Glossary Off
Versions: 1 2 3 4 5 6 7 8 9 10 11 12 13 14 15 16 17 18 19 20 21 22 23 24 25 26 27 28 29 30 31 32 33 34 35 36 37 38 39 40 41 42 43 44 45 46 47 48 49 50

000
ASUS43 KFSD 181010
RWRFSD

WEATHER ROUNDUP FOR SE SOUTH DAKOTA/SW MINNESOTA/NW IOWA
NATIONAL WEATHER SERVICE SIOUX FALLS SD
400 AM CST SAT NOV 18 2017

NOTE: "FAIR" INDICATES FEW OR NO CLOUDS BELOW 12,000 FEET WITH NO
SIGNIFICANT WEATHER AND OR OBSTRUCTIONS TO VISIBILITY.


SDZ038>040-050-052>070-181100-
SOUTHEAST SOUTH DAKOTA

CITY           SKY/WX    TMP DP  RH WIND       PRES   REMARKS
BROOKINGS      PTCLDY    29  24  82 N12       29.80R WCI  19
CHAMBERLAIN    CLOUDY    38  36  90 W9        29.87R
HURON          MOCLDY    28  21  75 N9        29.87R WCI  19
MADISON        CLOUDY    30  30 100 NW13G22   29.80R WCI  20
MITCHELL       CLOUDY    32  23  69 NW12      29.86R HAZE    WCI  23
SIOUX FALLS    CLOUDY    35  26  69 N10       29.79R WCI  27
WINNER         LGT RAIN  40  36  86 W12       29.89R
YANKTON        CLOUDY    35  28  75 NW16      29.81R WCI  25
$$

MNZ071-072-080-081-089-090-097-098-181100-
SOUTHWEST MINNESOTA

CITY           SKY/WX    TMP DP  RH WIND       PRES   REMARKS
FAIRMONT       CLOUDY    33  30  88 N17       29.72R WCI  22
JACKSON        CLOUDY    32  28  86 NW14G23   29.73S WCI  22
LUVERNE        CLOUDY    32  25  74 N8        29.78R WCI  25
MARSHALL       PTCLDY    28  23  81 NW20      29.80R WCI  15
MONTEVIDEO     CLOUDY    27  21  80 N14       29.80S WCI  15
PIPESTONE      MOCLDY    30  23  74 N5        29.76R WCI  25
REDWOOD FALLS  CLOUDY    30  22  72 NW9       29.78R WCI  22
WINDOM           N/A     30  18  59 NW16G22   29.74R WCI  19
WORTHINGTON    CLOUDY    30  24  78 N13       29.75R WCI  20
$$

IAZ001>003-012>014-020>022-031-032-NEZ013-014-SDZ071-181100-
NORTHWEST IOWA

CITY           SKY/WX    TMP DP  RH WIND       PRES   REMARKS
CHEROKEE       CLOUDY    35  35  98 N12       29.73R WCI  27
DENISON        CLOUDY    37  37 100 N12       29.71R
ESTHERVILLE    CLOUDY    32  31  96 N16       29.71R WCI  21
LE MARS        CLOUDY    36  32  87 N10G16    29.76R
ORANGE CITY    CLOUDY    34  30  86 N13       29.75R WCI  25
SHELDON        CLOUDY    32  28  86 N13       29.74R WCI  22
SIOUX CITY     MOCLDY    36  34  92 NW16      29.76R
SPENCER        CLOUDY    33  29  85 N18       29.72R WCI  22
STORM LAKE     CLOUDY    34  34 100 N17G23    29.70R WCI  23
$$

ABBREVIATIONS USED IN REMARKS
   TC - TEMPERATURE IN CELSIUS
  WCI - WIND CHILL INDEX
   HX - HEAT INDEX
  VSB - VISIBILITY





USA.gov is the U.S. government's official web portal to all federal, state and local government web resources and services.